#timestamp,LO_Frequency,Hit,StdDev 
1552363215.5,286046998.8,N
1552363235.4,286046999.4,N
1552363255.2,286046998.5,N
1552363275.1,286047001.0,N
1552363276.0,286047001.0,N
1552363295.8,286047000.8,N
1552363315.6,286047000.0,N
1552363335.5,286047001.1,N
1552363355.3,286047000.8,N
1552363375.1,286047000.4,N
1552363395.9,286047002.7,N
1552363415.7,286047000.1,N
1552363435.6,286046999.8,N
1552363455.4,286047001.9,N
1552363475.2,286047003.5,N
1552363495.1,286047004.2,N
1552363496.0,286047004.2,N
1552363515.8,286047003.9,N
1552363535.6,286047003.2,N
1552363585.5,286047003.1,E
1552363595.4,286047001.9,N
1552363615.3,286046998.8,P
1552363635.1,286046995.3,P
1552363655.8,286046995.8,N
1552363675.7,286046998.0,N
1552363695.5,286046996.5,N
1552363715.4,286046996.7,N
1552363735.2,286046996.8,N
1552363755.0,286046997.2,N
1552363755.9,286046997.2,N
1552363775.8,286046996.6,N
1552363795.6,286046999.6,N
1552363815.5,286046998.3,N
1552363835.3,286046998.9,N
1552363855.1,286046998.6,N
1552363875.9,286046998.8,N
1552363895.7,286046999.1,N
1552363915.5,286046996.9,N
1552363935.4,286046997.2,N
1552363955.2,286046999.6,N
1552363975.1,286046996.6,N
1552364006.0,286046999.2,E
1552364015.0,286046998.8,N
1552364015.9,286046998.8,P
1552364035.8,286047001.0,P
1552364055.6,286047000.8,N
1552364075.4,286047000.1,N
1552364095.3,286047000.2,N
1552364115.1,286047001.6,N
1552364135.8,286047001.5,N
1552364155.7,286047002.1,N
1552364175.5,286047004.3,Y
1552364195.4,286047001.9,P
1552364215.2,286047000.3,N
1552364235.0,286046999.9,N
1552364235.9,286046999.9,N
1552364255.8,286047000.3,N
1552364275.6,286047001.1,N
1552364295.5,286046999.5,N
1552364315.3,286046999.5,N
1552364335.1,286046997.1,Y
1552364355.9,286046997.1,P
1552364375.7,286046999.5,N
1552364395.5,286046999.2,N
1552364415.4,286046996.9,N
1552364435.2,286046997.1,N
1552364455.1,286046999.5,N
1552364456.0,286046999.5,N
1552364475.8,286047001.1,N
1552364495.6,286047000.9,N
1552364515.5,286047000.0,N
1552364535.3,286046998.9,N
1552364555.1,286046998.6,N
1552364575.9,286047000.8,N
1552364595.7,286047001.0,N
1552364615.6,286046998.1,N
1552364635.4,286047001.9,N
1552364655.2,286047000.9,N
1552364675.1,286046998.8,N
1552364676.0,286046998.8,N
1552364695.8,286046999.5,N
1552364715.6,286047000.7,N
1552364735.5,286047000.5,N
1552364755.3,286047001.6,N
1552364775.2,286047000.0,N
1552364795.9,286047002.8,N
1552364815.7,286046999.8,N
1552364835.6,286047000.6,N
1552364855.4,286046999.9,N
1552364875.3,286047002.6,N
1552364895.1,286047002.0,N
1552364896.0,286047002.0,N
1552364915.8,286047001.5,N
1552364935.7,286047002.1,N
1552364955.5,286047004.1,N
1552364975.3,286047002.7,N
1552364995.2,286047001.0,N
1552365015.0,286047000.5,N
1552365015.9,286047000.5,N
1552365035.8,286046998.3,N
1552365055.6,286046999.6,N
1552365075.4,286046998.3,N
1552365095.3,286046998.1,N
1552365115.1,286047000.2,N
1552365135.9,286047000.3,N
1552365155.7,286046999.9,N
1552365175.5,286047000.3,N
1552365195.4,286046998.3,N
1552365215.2,286046996.8,N
1552365235.0,286046995.7,N
1552365235.9,286046995.7,N
1552365255.8,286046995.9,N
1552365275.6,286046995.0,N
1552365295.5,286046997.0,N
1552365315.3,286046999.5,N
1552365335.1,286046996.8,N
1552365355.9,286046996.6,N
1552365375.7,286046998.5,N
1552365395.5,286047000.5,N
1552365415.4,286046998.9,N
1552365435.2,286046998.1,N
1552365455.1,286047000.9,N
1552365456.0,286047000.9,N
1552365475.8,286047000.3,N
1552365495.6,286047000.7,N
1552365515.5,286047000.6,N
1552365535.3,286047000.7,N
1552365555.1,286047001.1,N
1552365575.9,286046998.9,N
1552365595.7,286046998.5,N
1552365615.6,286046999.8,N
1552365635.4,286047001.1,N
1552365655.2,286046999.1,N
1552365675.1,286046998.9,N
1552365676.0,286046998.9,N
1552365695.8,286046998.6,N
1552365715.7,286046996.6,N
1552365735.5,286046998.3,N
1552365755.3,286046998.7,N
1552365775.2,286046998.2,N
1552365795.9,286047001.2,N
1552365815.7,286047000.5,N
1552365835.6,286047000.8,N
1552365855.4,286046998.8,N
1552365875.2,286046996.9,N
1552365895.1,286046999.6,N
1552365896.0,286046999.6,N
1552365915.8,286046996.9,N
1552365935.7,286046999.5,N
1552365955.5,286046999.4,N
1552365975.3,286047001.2,N
1552365995.2,286047001.0,N
1552366015.0,286046998.6,N
1552366015.9,286046998.6,N
1552366035.8,286046997.0,N
1552366055.6,286046997.1,N
1552366075.4,286046996.7,N
1552366095.3,286046997.3,N
1552366115.1,286047001.2,N
1552366135.8,286046999.9,N
1552366155.7,286046998.5,N
1552366175.5,286046999.3,N
1552366195.4,286046999.5,N
1552366215.2,286046998.2,N
1552366235.0,286047000.4,N
1552366235.9,286047000.4,N
1552366255.8,286046999.8,N
1552366275.6,286047000.0,N
1552366295.4,286047002.5,N
1552366315.3,286047000.4,N
1552366335.1,286047002.6,N
1552366355.9,286047001.9,N
1552366375.7,286046999.7,N
1552366395.5,286047000.1,N
1552366415.4,286047000.0,N
1552366435.2,286047000.0,N
1552366455.0,286047001.2,N
1552366456.0,286047001.2,N
1552366475.8,286047001.0,N
1552366495.6,286047000.2,N
1552366515.5,286047002.5,N
1552366535.3,286047002.8,N
1552366555.1,286047002.7,N
1552366575.9,286047002.6,N
1552366595.7,286047001.0,N
1552366615.6,286047000.5,N
1552366635.4,286047000.3,N
1552366655.2,286047002.0,N
1552366675.1,286047001.6,N
1552366676.0,286047001.6,N
1552366695.8,286047004.3,Y
1552366715.6,286047000.5,P
1552366735.5,286047001.2,P
1552366755.3,286047000.5,N
1552366775.2,286047000.5,N
1552366795.9,286046999.7,N
